Location: Long Geng
(2.6167°N, 114.1333°E)
Time: 20:45:39
(UTC+00:00)

BLOCK DM-SL R/B - Pass Details

Date: 25 September 2021
Orbit: 644 x 35622 km, 0.3° (Epoch: 24 October)

Event Time Altitude Azimuth Distance (km) Brightness Sun altitude
Exits shadow 20:44:59 38° 255° (WSW) 1,734 4.8 -22.5°
Maximum altitude 20:47:46 77° 175° (S) 1,663 5.1 -21.8°
Drops below altitude 10° 06:27:28 10° 92° (E) 14,115 9.7 56.6°
Sets 06:35:58 0° 91° (E) 13,004 9.4 54.5°
